Flag for China Weather past 2 weeks in Guangzhou, Guangdong, China

Now
88 °F

Clear.


Feels Like: 102 °F
Forecast: 80 / 97 °F
Wind: 3 mph from Southwest

Location: Canton Airport

Current Time: Aug 1, 2014 at 8:06:15 AM

Latest Report: Aug 1, 2014 at 7:30 AM


Visibility: 4 mi

Pressure: 29.56 "Hg

Humidity: 75%

Dew point: 79 °F

Location of GuangzhouLocation

Historic Weather in Guangzhou — Graph

°F

Guangzhou temperature yesterday

Maximum temperature yesterday: 100 °F (at 2:30 PM)
Minimum temperature yesterday: 84 °F (at 4:00 AM)
Average temperature yesterday: 92 °F

Past Weeks' High & Low Weather Summary

 TemperatureHumidityPressure
High100 °F (Jul 31, 2:30 PM)100% (Jul 20, 7:30 AM)29.83 "Hg (Jul 20, 7:30 AM)
Low79 °F (Jul 19, 4:30 AM)42% (Jul 22, 5:30 PM)29.42 "Hg (Jul 23, 4:00 PM)
Average87 °F72%29.66 "Hg
* Reported Jul 17 7:00 AM — Aug 1 7:00 AM, Guangzhou, Weather by CustomWeather, © 2014

Note: Actual official high and low records may vary slightly from our data, if they occured in-between our weather recording intervals... More about our weather records

Advertising

Guangzhou weather history for previous 24 hours

 ConditionsComfort  
Time TempWeatherWind HumidityBarometerVisibility
7:00 AM
Aug 1
86 °FClear.1 mph79%29.56 "Hg4 mi
6:30 AM86 °FClear.3 mph79%29.56 "Hg4 mi
6:00 AM84 °FPassing clouds.3 mph84%29.53 "Hg4 mi
5:30 AM86 °FPassing clouds.1 mph79%29.53 "Hg5 mi
5:00 AM86 °FClear.1 mph79%29.53 "Hg5 mi
4:30 AM86 °FClear.3 mph79%29.53 "Hg5 mi
4:00 AM86 °FClear.3 mph79%29.53 "Hg5 mi
3:30 AM88 °FClear.3 mph75%29.53 "Hg5 mi
3:00 AM88 °FClear.3 mph75%29.53 "Hg5 mi
2:30 AM88 °FClear.6 mph75%29.53 "Hg5 mi
2:00 AM88 °FClear.8 mph75%29.53 "Hg5 mi
1:30 AM88 °FClear.3 mph75%29.56 "Hg5 mi
1:00 AM90 °FClear.6 mph67%29.56 "Hg5 mi
12:30 AM90 °FClear.6 mph67%29.56 "Hg5 mi
12:00 AM90 °FClear.6 mph67%29.56 "Hg5 mi
11:30 PM
Jul 31
90 °FClear.3 mph67%29.56 "Hg4 mi
11:00 PM90 °FClear.3 mph67%29.56 "Hg4 mi
10:30 PM91 °FClear.3 mph63%29.56 "Hg4 mi
10:00 PM91 °FClear.3 mph63%29.56 "Hg4 mi
9:30 PM91 °FClear.3 mph63%29.53 "Hg4 mi
9:00 PM93 °FClear.3 mph59%29.53 "Hg5 mi
8:30 PM93 °FClear.3 mph59%29.53 "Hg5 mi
8:00 PM93 °FClear.3 mph59%29.53 "Hg5 mi
7:30 PM95 °FClear.3 mph53%29.50 "Hg5 mi
7:00 PM95 °FSunny.3 mph53%29.53 "Hg10 mi
6:30 PM97 °FSunny.6 mph50%29.53 "Hg10 mi
6:00 PM97 °FPassing clouds.8 mph47%29.50 "HgN/A
5:30 PM99 °FPassing clouds.8 mph42%29.50 "HgN/A
5:00 PM99 °FSunny.8 mph44%29.50 "Hg10 mi
4:30 PM99 °FPassing clouds.10 mph44%29.50 "HgN/A
4:00 PM99 °FPassing clouds.8 mph44%29.53 "HgN/A
3:30 PM100 °FPassing clouds.8 mph42%29.53 "HgN/A
3:00 PM100 °FPassing clouds.6 mph42%29.53 "HgN/A
2:30 PM100 °FScattered clouds.10 mph42%29.56 "Hg5 mi
2:00 PM99 °FScattered clouds.8 mph47%29.56 "Hg5 mi
1:30 PM97 °FScattered clouds.6 mph53%29.59 "Hg4 mi
1:00 PM99 °FScattered clouds.6 mph50%29.59 "Hg4 mi
12:30 PM99 °FPassing clouds.3 mph50%29.59 "Hg4 mi
12:00 PM97 °FPassing clouds.6 mph53%29.62 "Hg4 mi
11:30 AM97 °FHaze.3 mph60%29.62 "Hg3 mi
10:30 AM93 °FScattered clouds.1 mph59%29.65 "Hg3 mi
10:00 AM93 °FHaze.1 mph63%29.65 "Hg2 mi
9:30 AM91 °FHaze.3 mph67%29.65 "Hg2 mi
9:00 AM90 °FHaze.1 mph75%29.65 "Hg2 mi
8:30 AM88 °FFog.3 mph75%29.65 "Hg2 mi
8:00 AM88 °FFog.3 mph75%29.65 "Hg2 mi
Weather by CustomWeather, © 2014

See weather overviewHow to use our weather pages